Regional Weather Roundup
Issued by NWS

Home | Current Version | Previous Version | Graphics & Text | Print | Product List | Glossary On
Versions: 1 2 3 4 5 6 7 8 9 10 11 12 13 14 15 16 17 18 19 20 21 22 23 24 25 26 27 28 29 30 31 32 33 34 35 36 37 38 39 40 41 42 43 44 45 46 47 48 49 50
000
ASUS43 KLMK 081510
RWRKY
KENTUCKY REGIONAL WEATHER ROUNDUP
NATIONAL WEATHER SERVICE LOUISVILLE KY
1000 AM EST MON FEB 08 2016

NOTE "FAIR" INDICATES FEW OR NO CLOUDS BELOW 12,000 FEET
WITH NO SIGNIFICANT WEATHER AND/OR OBSTRUCTIONS TO VISIBILITY.

KYZ001>023-026-027-061>063-070>075-081600-
WESTERN AND SOUTH CENTRAL KENTUCKY

CITY           SKY/WX    TMP DP  RH WIND       PRES   REMARKS
PADUCAH        CLOUDY    40  26  57 W12G20    29.81R WCI  33
HENDERSON      CLOUDY    37  28  70 W12G20    29.77S WCI  30
OWENSBORO      CLOUDY    38  34  85 W10       29.77R WCI  31
HOPKINSVILLE   MOSUNNY   40  27  58 W17       29.79R WCI  32
BOWLING GREEN  CLOUDY    39  32  76 W8G21     29.78R WCI  33
GLASGOW        LGT RAIN  37  37 100 NW9G16    29.75R WCI  30
$$

KYZ024-025-028>034-038-045-046-053-081600-
NORTH CENTRAL KENTUCKY

CITY           SKY/WX    TMP DP  RH WIND       PRES   REMARKS
LOUISVILLE/SDF CLOUDY    35  32  88 W8        29.71S WCI  29
LOUISVILLE/LOU LGT SNOW  34  32  92 SW6       29.72S FOG     WCI  29
FORT KNOX      CLOUDY    33  32  94 W12       29.70S WCI  25
$$

KYZ035>037-039>044-047>052-055>060-089>105-081600-
NORTHEAST KENTUCKY

CITY           SKY/WX    TMP DP  RH WIND       PRES   REMARKS
LEXINGTON      CLOUDY    35  33  92 W10       29.70R WCI  27
COVINGTON      CLOUDY    37  34  87 W12       29.66R WCI  30
FRANKFORT      MIX PCPN  36  33  89 SW8       29.69R WCI  30
$$

KYZ054-064>069-076>088-106>120-081600-
SOUTHEAST KENTUCKY

CITY           SKY/WX    TMP DP  RH WIND       PRES   REMARKS
JACKSON        CLOUDY    36  34  92 VRB3      29.68F
LONDON         PTSUNNY   39  34  82 SW7       29.71F WCI  34
SOMERSET       CLOUDY    37  37 100 S5        29.72F WCI  34
MIDDLESBORO    PTSUNNY   42  33  68 N3        29.74F
MONTICELLO     CLOUDY    39  38  96 NE7       29.73F WCI  34
$$




USA.gov is the U.S. government's official web portal to all federal, state and local government web resources and services.